SCOUT A DEB, 2644

Orbit data source: Space-Track

SCOUT A DEB, 2644 is space debris in LEO originally from a launch on Thu, 19 May 1966 UTC launched from the Air Force Western Test Range (AFWTR). Debris objects in space refer to the collection of defunct objects orbiting the Earth. Examples of debris include non-operational satellites, rocket bodies, and fragments generated from explosions, collisions, or faulty payload assembly.

Loading next visibility...
Identifier
2644, 1966-041D
Orbit
LEO
Last TLE update
2 days ago
Origin
Manufacturer
Unknown
Mission
Spacecraft
Bus & Motor
Unknown
Mass
Unknown
Launch date (UTC)
1966-05-19 (59 years ago)
Launch vehicle
Unknown
Launch site
Air Force Western Test Range (AFWTR)
Object type
Payload
Rocket body
Debris
Shape & HBR
Unknown
Radar Cross Section
Small (<0.1 m²)

Expand to show TLE details & history

TLE from 2 days ago
0 SCOUT A DEB
1 02644U 66041D   25165.60346518  .00000260  00000-0  21388-3 0  9998
2 02644  90.1525  39.1286 0214612  41.1325 320.5795 13.76958520948100
Epoch: 2025-06-14T14:28Z
TLE epoch observation values (Epoch: 2025-06-14T14:28:59.391Z)
Latitude
-0.00013°
Longitude
-81.2594°
Altitude
857.161 km
Speed
7.484 km/s
True Right ascension
02h 36m 30s
True Declination
0° 00' 00"
Sunlit
Object was in daylight at epoch
Visualization orbit readout
Latitude
-20.27847°
Longitude
-81.17181°
Altitude
890.257 km
Speed
7.452 km/s
Apparent Right ascension
05h 38m 30s
Apparent Declination
-57° 44' 19"
Sunlit
Object is in daylight
Visualization observer readout
Local Sidereal Time
00:08:23
Azimuth
142.636° SSE
Elevation
-29.299°
Doppler factor
1
Orbital elements
Apogee altitude
1,129.439 km
Perigee altitude
813.966 km
Semi-major axis
7,349.84 km
Eccentricity
0.02146
Inclination
90.1525°
RAAN
39.1286°
Arg. of periapsis
41.1325°
True anomaly
Unknown
Mean anomaly
320.5795°
Eccentric anomaly
Unknown
Mean motion
3.4445 °/min
Orbital period
104.51 mins
BSTAR
0.00021388
Loading maneuver chart data...
Loading SW <> Apogee altitude chart data...
Loading historical data...
Loading historical data...
Loading historical data...
Loading historical data...
Loading historical data...
Loading historical data...
Loading historical data...

SCOUT A DEB Visibility forecast

Observer location: undefined°, undefined°

Span
Click to sort rows by Start time (UTC) header in descending order
Start Az.
Max El. time (UTC)
Max El. Az.
Max El.
End time (UTC)
End Az.
9 mins2025-06-16 15:25:35.103Z155.632° SSE2025-06-16 15:30:35.103Z64.861° ENE37.61°2025-06-16 15:34:35.103Z10.141° NNE
5 mins2025-06-16 17:12:35.103Z250.272° W2025-06-16 17:14:35.103Z275.391° WNW16.176°2025-06-16 17:17:35.103Z313.02° NW
6 mins2025-06-17 02:23:35.103Z52.138° ENE2025-06-17 02:26:35.103Z85.457° E16.922°2025-06-17 02:29:35.103Z115.366° SE
10 mins2025-06-17 04:06:35.103Z353.846° N2025-06-17 04:10:35.103Z296.778° NW42.655°2025-06-17 04:16:35.103Z195.527° SSW
|